Regional Weather Roundup
Issued by NWS

Home | Current Version | Previous Version | Graphics & Text | Print | Product List | Glossary On
Versions: 1 2 3 4 5 6 7 8 9 10 11 12 13 14 15 16 17 18 19 20 21 22 23 24 25 26 27
000
ASUS45 KSLC 261810
RWRUT

UTAH REGIONAL WEATHER ROUNDUP
NATIONAL WEATHER SERVICE SALT LAKE CITY UT
1100 AM MST SUN FEB 26 2017

UTZ001>011-023>025-261900-

NORTHERN UTAH

CITY           SKY/WX    TMP DP  RH WIND       PRES   REMARKS
BRIGHAM CITY     N/A     29  16  58 CALM      29.93S
HILL AFB       SUNNY     27  12  53 E8        29.90F WCI  19
LOGAN          MOSUNNY   22  14  71 CALM      29.92F
OGDEN          MOSUNNY   28  15  58 S10       29.91F WCI  19
SALT LAKE CITY PTSUNNY   32  16  51 S17       29.93S WCI  21
TOOELE VALLEY  SUNNY     32  21  64 S17G24    29.91F WCI  21
WENDOVER       SUNNY     28  18  64 E6        29.89F WCI  22
HEBER CITY     SUNNY     16   5  62 CALM      29.93F
WEST JORDAN    SUNNY     31  24  76 S17G24    29.93S WCI  19

$$

UTZ011>015-024>027-261900-

CENTRAL/NORTHEAST UTAH

CITY           SKY/WX    TMP DP  RH WIND       PRES   REMARKS
PROVO AIRPORT  SUNNY     25  14  63 S6        29.97F WCI  18
MOAB/CANYONLAN SUNNY     37   6  27 VRB3      29.95F
DELTA          SUNNY     30  19  64 CALM      29.93F
PRICE          SUNNY     28   7  41 VRB3      29.93S
RICHFIELD      SUNNY     28  23  80 E2        29.95F
ROOSEVELT      SUNNY     23   9  54 CALM      29.99F
VERNAL         SUNNY     21   9  59 CALM      29.97S

$$

UTZ013>016-019>022-027-261900-

SOUTHERN UTAH

CITY           SKY/WX    TMP DP  RH WIND       PRES   REMARKS
BRYCE CANYON   SUNNY     24  13  62 SE12      29.88F WCI  13
CEDAR CITY     SUNNY     36  20  52 VRB3      29.88F
MILFORD        MOSUNNY   32  23  69 S8        29.90F WCI  25
ST GEORGE      CLEAR     43  24  47 CALM      29.95F
HANKSVILLE     SUNNY     36  12  38 CALM      29.99F
KANAB          PTSUNNY   43  18  36 SE8       29.97F
BLANDING       SUNNY     35  16  46 SW5       30.01S WCI  31

$$

REGIONAL REPORTS     COLORADO/ARIZONA

CITY           SKY/WX    TMP DP  RH WIND       PRES   REMARKS
CRAIG, CO      SUNNY     22   6  50 VRB3      29.92F
GRAND JUNCTION SUNNY     35   9  33 SE6       29.96F WCI  30
RIFLE, CO      SUNNY     28   9  44 CALM      29.96F
MONTROSE, CO   SUNNY     33  12  41 CALM      29.96F
CORTEZ, CO     PTSUNNY   35  16  45 CALM      29.94F
COLORADO CITY    N/A     45  21  39 MISG      29.94F
PAGE, AZ       SUNNY     42  15  33 NW5       29.95S
GRAND CANYON   CLOUDY    34  19  54 S8        29.94S WCI  27
KINGMAN, AZ    MOSUNNY   52  12  20 SW21      29.92S
FLAGSTAFF, AZ  CLOUDY    34  16  47 SW12      29.93S WCI  25

$$

REGIONAL REPORTS    NEVADA/IDAHO/WYOMING

CITY           SKY/WX    TMP DP  RH WIND       PRES   REMARKS
LAS VEGAS, NV  MOSUNNY   51  18  27 CALM      29.92S
ELY, NY        SUNNY     26  16  65 S13       29.84F WCI  15
ELKO, NV       SUNNY     29  18  63 W6        29.84F WCI  23
POCATELLO, ID  CLOUDY    27  12  53 N3        29.86F
BURLEY, ID     SUNNY     33  15  47 S17G25    29.83F WCI  22
FORT BRIDGER,    N/A     20   7  58 W12       29.85S WCI   7
EVANSTON, WY   CLOUDY    13   7  77 SW13      29.81F WCI  -2
ROCK SPRINGS,  SUNNY     16   4  59 SW12      29.83F WCI   3

$$




USA.gov is the U.S. government's official web portal to all federal, state and local government web resources and services.